Weather History for KPTS - November, 2012

Change the Weather History Date:

Thursday, November 22, 2012

  Actual Average (KJLN) Record (KJLN)
Temperature  
Mean Temperature 62 °F 45 °F  
Max Temperature 70 °F 56 °F 77 °F (1955)
Min Temperature 53 °F 35 °F 19 °F (1964)
Degree Days  
Heating Degree Days 2 20  
Month to date heating degree days 331  
Since 1 July heating degree days 583  
Cooling Degree Days 0 0  
Month to date cooling degree days 5  
Year to date cooling degree days 1696  
Growing Degree Days 12 (Base 50)    
Moisture  
Dew Point 45 °F    
Average Humidity 53    
Maximum Humidity 61    
Minimum Humidity 48    
Precipitation  
Precipitation 0.00 in 0.12 in 2.03 in (1992)
Month to date precipitation 2.82  
Year to date precipitation 42.77  
Sea Level Pressure  
Sea Level Pressure 30.01 in    
Wind  
Wind Speed 13 mph (SSW)    
Max Wind Speed 23 mph    
Max Gust Speed 32 mph    
Visibility 10 miles    
Events      
T = Trace of Precipitation, MM = Missing Value Source: NWS Daily Summary

Daily Weather History Graph

Daily Weather History Graph

Search for Another Location

Airport or City:

Trip Planner

Search our weather history database for the weather conditions in past years. The results will help you decide how hot, cold, wet, or windy it might be!

Date:

Astronomy

Nov. 22, 2012 Rise Set
Actual Time 7:06 AM CST 5:03 PM CST
Civil Twilight 6:37 AM CST 5:32 PM CST
Nautical Twilight 6:06 AM CST 6:04 PM CST
Astronomical Twilight 5:34 AM CST 6:35 PM CST
Moon 1:44 PM CST (11/22) 1:33 AM CST (11/22)
Length of Visible Light 10h 54m
Length of Day
9h 57m
Waxing Gibbous, 71% of the Moon is Illuminated
Nov 22
Waxing Gibbous
Nov 28
Full
Dec 6
Last Quarter
Dec 13
New
Dec 19
First Quarter

Hourly Weather History & Observations

Time (CST) Temp. Dew Point Humidity Pressure Visibility Wind Dir Wind Speed Gust Speed Precip Events Conditions
12:15 AM 57.9 °F 39.7 °F 51% 30.04 in 10.0 mi South 11.5 mph - N/A   Clear
12:35 AM 56.3 °F 39.4 °F 53% 30.03 in 10.0 mi South 11.5 mph - N/A   Clear
12:55 AM 56.5 °F 39.6 °F 53% 30.03 in 10.0 mi South 10.4 mph - N/A   Clear
1:15 AM 56.3 °F 39.4 °F 53% 30.02 in 10.0 mi South 11.5 mph 17.3 mph N/A   Clear
1:35 AM 57.4 °F 39.9 °F 52% 30.02 in 10.0 mi South 12.7 mph 16.1 mph N/A   Clear
1:55 AM 58.3 °F 40.6 °F 52% 30.02 in - SSW 12.7 mph - N/A   Clear
2:15 AM 58.3 °F 40.6 °F 52% 30.01 in - South 12.7 mph - N/A   Clear
2:35 AM 57.9 °F 40.8 °F 53% 30.01 in 10.0 mi South 11.5 mph 17.3 mph N/A   Clear
2:55 AM 58.3 °F 41.4 °F 53% 30.00 in 10.0 mi SSW 12.7 mph 17.3 mph N/A   Clear
3:15 AM 58.3 °F 41.2 °F 53% 30.00 in 10.0 mi SSW 13.8 mph - N/A   Clear
3:35 AM 58.3 °F 41.4 °F 53% 30.00 in 10.0 mi SSW 13.8 mph 18.4 mph N/A   Clear
3:55 AM 58.3 °F 41.5 °F 54% 29.99 in 10.0 mi SSW 12.7 mph - N/A   Clear
4:15 AM 58.3 °F 41.9 °F 54% 29.99 in 10.0 mi SSW 10.4 mph - N/A   Clear
4:35 AM 58.3 °F 42.3 °F 55% - 10.0 mi SSW 11.5 mph 18.4 mph N/A   Clear
4:55 AM 58.3 °F 42.4 °F 56% 29.99 in 10.0 mi SSW 13.8 mph 18.4 mph N/A   Clear
5:15 AM 58.3 °F 42.8 °F 56% 29.99 in 10.0 mi SSW 12.7 mph 18.4 mph N/A   Clear
5:35 AM 58.3 °F 42.8 °F 56% 29.99 in 10.0 mi SSW 12.7 mph - N/A   Clear
5:55 AM 58.3 °F 43.0 °F 57% 29.98 in 10.0 mi SSW 12.7 mph - N/A   Clear
6:15 AM 58.3 °F 43.2 °F 57% 29.99 in 10.0 mi SSW 11.5 mph - N/A   Clear
6:35 AM 58.3 °F 43.3 °F 58% 29.99 in 10.0 mi SSW 11.5 mph - N/A   Clear
6:55 AM 57.6 °F 43.2 °F 59% 29.99 in 10.0 mi SSW 11.5 mph - N/A   Clear
7:15 AM 57.9 °F 43.2 °F 58% 29.98 in 10.0 mi SSW 12.7 mph 17.3 mph N/A   Clear
7:35 AM 58.3 °F 43.3 °F 58% 29.98 in 10.0 mi SSW 12.7 mph 18.4 mph N/A   Clear
7:55 AM 58.3 °F 43.3 °F 58% 29.98 in 10.0 mi SSW 16.1 mph 19.6 mph N/A   Clear
8:15 AM 58.3 °F 43.2 °F 57% 29.99 in 10.0 mi SSW 16.1 mph 23.0 mph N/A   Clear
8:35 AM 58.3 °F 42.8 °F 56% 29.99 in 10.0 mi SSW 13.8 mph 24.2 mph N/A   Clear
8:55 AM 58.3 °F 42.6 °F 56% 29.99 in 10.0 mi SSW 16.1 mph 19.6 mph N/A   Clear
9:15 AM 58.5 °F 43.0 °F 56% 29.98 in 10.0 mi SSW 13.8 mph - N/A   Clear
9:35 AM 59.9 °F 44.1 °F 56% 29.98 in 10.0 mi SSW 15.0 mph 21.9 mph N/A   Clear
9:55 AM 60.8 °F 44.8 °F 56% 29.98 in 10.0 mi SSW 16.1 mph 21.9 mph N/A   Clear
10:15 AM 61.2 °F 45.0 °F 55% 29.98 in 10.0 mi SSW 18.4 mph 23.0 mph N/A   Clear
10:35 AM 63.0 °F 45.9 °F 54% 29.98 in 10.0 mi SSW 12.7 mph 21.9 mph N/A   Clear
10:55 AM 63.7 °F 46.0 °F 53% 29.98 in 10.0 mi SW 20.7 mph 29.9 mph N/A   Clear
11:15 AM 64.4 °F 46.6 °F 52% 29.97 in 10.0 mi SSW 18.4 mph 25.3 mph N/A   Clear
11:35 AM 65.3 °F 47.3 °F 52% 29.96 in 10.0 mi SSW 20.7 mph 26.5 mph N/A   Clear
11:55 AM 66.7 °F 48.2 °F 51% 29.94 in 10.0 mi SSW 17.3 mph 25.3 mph N/A   Clear
12:15 PM 68.2 °F 49.3 °F 51% 29.94 in 10.0 mi SSW 18.4 mph 26.5 mph N/A   Clear
12:35 PM 68.4 °F 49.3 °F 50% 29.92 in 10.0 mi SSW 19.6 mph 28.8 mph N/A   Clear
12:55 PM 69.6 °F 50.2 °F 50% 29.92 in 10.0 mi SSW 16.1 mph 32.2 mph N/A   Clear
1:15 PM 70.9 °F 51.1 °F 49% 29.91 in 10.0 mi SW 17.3 mph 25.3 mph N/A   Clear
1:35 PM 70.9 °F 50.4 °F 48% 29.92 in 10.0 mi SSW 21.9 mph 25.3 mph N/A   Clear
1:55 PM 70.0 °F 50.4 °F 50% 29.91 in 10.0 mi SW 23.0 mph 32.2 mph N/A   Clear
2:15 PM 68.4 °F 49.3 °F 50% 29.91 in 10.0 mi SW 17.3 mph 26.5 mph N/A   Clear
2:35 PM 70.3 °F 51.3 °F 51% 29.90 in 10.0 mi SSW 13.8 mph - N/A   Clear
2:55 PM 70.9 °F 51.1 °F 49% 29.91 in 10.0 mi SSW 20.7 mph 27.6 mph N/A   Clear
3:15 PM 70.9 °F 50.0 °F 48% 29.91 in 10.0 mi SW 16.1 mph 24.2 mph N/A   Clear
3:35 PM 70.9 °F 50.4 °F 48% 29.92 in 10.0 mi SW 10.4 mph 13.8 mph N/A   Clear
3:55 PM 70.9 °F 51.6 °F 50% 29.93 in 10.0 mi SW 8.1 mph - N/A   Clear
4:15 PM 69.6 °F 51.4 °F 52% 29.94 in 10.0 mi SW 6.9 mph - N/A   Clear
4:35 PM 69.8 °F 51.4 °F 52% 29.95 in 10.0 mi SW 10.4 mph - N/A   Clear
4:55 PM 69.1 °F 50.9 °F 52% 29.96 in 10.0 mi SW 8.1 mph - N/A   Clear
5:15 PM 68.4 °F 50.7 °F 53% 29.97 in 10.0 mi SW 6.9 mph - N/A   Clear
5:35 PM 67.3 °F 50.7 °F 55% 29.98 in 10.0 mi SSW 6.9 mph - N/A   Scattered Clouds
5:55 PM 65.5 °F 50.4 °F 58% 29.98 in 10.0 mi SSW 6.9 mph - N/A   Scattered Clouds
6:15 PM 65.8 °F 50.2 °F 57% 29.99 in 10.0 mi SW 10.4 mph - N/A   Scattered Clouds
6:35 PM 67.5 °F 50.4 °F 54% 29.99 in 10.0 mi SW 11.5 mph - N/A   Scattered Clouds
6:55 PM 68.4 °F 50.5 °F 53% 30.00 in 10.0 mi SW 12.7 mph 16.1 mph N/A   Mostly Cloudy
7:15 PM 68.4 °F 50.5 °F 53% 30.01 in 10.0 mi SW 12.7 mph 18.4 mph N/A   Mostly Cloudy
7:55 PM 64.9 °F 50.7 °F 60% 30.05 in 10.0 mi NW 5.8 mph - N/A   Overcast
8:15 PM 63.3 °F 49.8 °F 61% 30.08 in 10.0 mi North 12.7 mph 19.6 mph N/A   Overcast
8:35 PM 62.1 °F 45.1 °F 54% 30.09 in 10.0 mi North 13.8 mph 24.2 mph N/A   Mostly Cloudy
8:55 PM 61.3 °F 42.4 °F 50% 30.11 in 10.0 mi North 13.8 mph 25.3 mph N/A   Mostly Cloudy
9:15 PM 60.8 °F 41.4 °F 49% 30.12 in 10.0 mi North 16.1 mph 21.9 mph N/A   Mostly Cloudy
9:35 PM 60.8 °F 41.2 °F 48% 30.15 in 10.0 mi North 16.1 mph 21.9 mph N/A   Mostly Cloudy
9:55 PM 59.2 °F 40.6 °F 50% 30.17 in 10.0 mi North 15.0 mph 23.0 mph N/A   Overcast
10:15 PM 58.3 °F 40.5 °F 52% 30.18 in 10.0 mi North 15.0 mph 26.5 mph N/A   Mostly Cloudy
10:35 PM 57.2 °F 39.7 °F 52% 30.20 in 10.0 mi North 16.1 mph 24.2 mph N/A   Mostly Cloudy
10:55 PM 55.8 °F 38.8 °F 53% 30.21 in 10.0 mi North 15.0 mph 24.2 mph N/A   Mostly Cloudy
11:15 PM 55.8 °F 37.4 °F 50% 30.23 in 10.0 mi North 12.7 mph 25.3 mph N/A   Scattered Clouds
11:35 PM 55.6 °F 36.5 °F 49% 30.24 in 10.0 mi NNE 12.7 mph 23.0 mph N/A   Scattered Clouds
11:55 PM 53.2 °F 35.6 °F 51% 30.24 in 10.0 mi NNE 10.4 mph - N/A   Scattered Clouds